Starlink 3374

operational
NORAD ID: 51112 Int'l Des: 2022-005 Owner: SPXS Country: US Constellation: starlink
LEOCIRCULAR

Starlink 3374について

説明を読み込み中...

リアルタイム位置

3D地球を読み込み中...

次回通過

高度履歴

Altitude vs Time

uPlot chart will show altitude changes over time

軌道要素

1 51112U 22005J 25257.56397106 -.00000651 00000-0 -22801-4 0 9998
2 51112 53.2206 359.7546 0001330 87.0068 273.1077 15.08835719202294
Epoch: Sep 14, 2025 • Age: 21 hours

現在のステータス

高度 545.2 km
速度 7.60 km/s
衛星直下点 52.37°N, 82.53°W
打ち上げ日 Jan 19, 2022
運用期間 3.6 years
タイプ internet

技術仕様

分類 Payload
質量 297.00 kg
乾燥質量 275.00 kg
総質量 297.00 kg
長さ 0.20 m
直径 2.80 m
スパン 9.00 m
形状 Box + pan
製造者 SPXS
バスタイプ Starlink
フェーズステータス In Orbit
所有者/国 SPXS/US

大規模コンステレーション

Loading constellations...